Regional Weather Roundup
Issued by NWS

Home | Current Version | Previous Version | Text Only | Print | Product List | Glossary On
Versions: 1 2 3 4 5 6 7 8 9 10 11 12 13 14 15 16 17 18 19 20 21 22 23 24 25 26 27 28 29 30 31 32 33 34 35 36 37 38 39 40 41 42 43 44 45 46 47 48 49 50
676
ASUS44 KOUN 280010
RWROK

WEATHER ROUNDUP FOR OKLAHOMA
NATIONAL WEATHER SERVICE NORMAN OK
700 PM CDT TUE SEP 27 2016

NOTE: "FAIR" INDICATES FEW OR NO CLOUDS BELOW 12,000 FEET WITH NO
      SIGNIFICANT WEATHER AND/OR OBSTRUCTIONS TO VISIBILITY.

OKZ001>007-009>012-014-015-017-280100-
NORTHWEST OKLAHOMA AND THE PANHANDLE

CITY           SKY/WX    TMP DP  RH WIND       PRES   REMARKS
GAGE           CLEAR     84  42  22 SW7       29.99F
6HR MIN TEMP:  84; 6HR MAX TEMP:  90;

GUYMON         CLEAR     83  36  18 SE3       30.02S
ENID/WOODRING  PTCLDY    79  54  41 S12       29.94F
$$

OKZ016-021>023-033>039-044-045-280100-
SOUTHWEST OKLAHOMA

CITY           SKY/WX    TMP DP  RH WIND       PRES   REMARKS
LAWTON/REGL    CLEAR     75  50  41 S5        30.02F
6HR MIN TEMP:  75; 6HR MAX TEMP:  81;

LAWTON/FT SILL CLEAR     76  47  36 SW6       30.01F
FREDERICK      CLEAR     76  49  38 MISG      30.01S
CLINTON        CLEAR     76  49  38 S12       30.04S
HOBART         CLEAR     75  51  43 SW10      30.03S
ALTUS AFB      CLEAR     76  50  40 S7        30.02F
$$

OKZ018>020-024>031-280100-
CENTRAL OKLAHOMA

CITY           SKY/WX    TMP DP  RH WIND       PRES   REMARKS
OKLAHOMA CITY  PTCLDY    74  50  42 S7        29.99F
6HR MIN TEMP:  74; 6HR MAX TEMP:  81;

OKC/WILEY POST CLEAR     74  50  42 SW10      29.99F
OKC/TINKER AFB CLEAR     75  49  39 S8        29.99S
STILLWATER     CLEAR     75  49  39 SW6       29.96F
GUTHRIE        CLEAR     76  50  40 SW7       29.97F
$$

OKZ008-013-054>072-280100-
NORTHEAST OKLAHOMA

CITY           SKY/WX    TMP DP  RH WIND       PRES   REMARKS
TULSA          CLEAR     80  46  30 S10       29.94S
6HR MIN TEMP:  77; 6HR MAX TEMP:  84;

TULSA/JONES    CLEAR     74  50  42 SW5       29.96S
BARTLESVILLE   CLEAR     75  50  41 SW3       29.94F
MUSKOGEE       CLEAR     73  49  42 S6        29.97F
$$

OKZ032-040>043-046>053-073>077-280100-
SOUTH CENTRAL/SOUTHEAST OKLAHOMA

CITY           SKY/WX    TMP DP  RH WIND       PRES   REMARKS
ARDMORE/DWNTWN CLEAR     72  52  49 CALM      30.01S
MCALESTER      CLEAR     73  48  41 SE3       29.99F
$$





USA.gov is the U.S. government's official web portal to all federal, state and local government web resources and services.